Location: Tamazert
(32.6352°N, 5.2072°W)
Time: 22:32:54
(UTC+00:00)

IDEFIX/ARIANE 42P - Pass Details

Date: 22 May 2022
Orbit: 785 x 802 km, 98.4° (Epoch: 24 June)

Event Time Altitude Azimuth Distance (km) Brightness Sun altitude
Rises 01:57:10 0° 22° (NNE) 3,315 6.9 -31.9°
Reaches altitude 10° 01:59:39 10° 30° (NNE) 2,381 5.9 -31.7°
Enters shadow 02:04:12 39° 88° (E) 1,187 3.6 -31.2°
